Weather History for Sault Ste Marie, MI

Change the Weather History Date:

Friday, February 15, 2013

  Actual Average Record
Temperature  
Mean Temperature 15 °F 18 °F  
Max Temperature 23 °F 26 °F 44 °F (1981)
Min Temperature 7 °F 9 °F -25 °F (1943)
Degree Days  
Heating Degree Days 50 47  
Month to date heating degree days 760 730  
Since 1 July heating degree days 5143 5530  
Moisture  
Dew Point 7 °F    
Average Humidity 69    
Maximum Humidity 84    
Minimum Humidity 53    
Precipitation  
Precipitation 0.05 in 0.04 in 0.88 in (1976)
Month to date precipitation 1.29 0.73  
Year to date precipitation 4.58 2.92  
Snow  
Snow 1.30 in 0.60 in 9.40 in (1967)
Month to date snowfall 17.1 11.1  
Since 1 July snowfall 106.5 92.7  
Snow Depth 20.00 in    
Sea Level Pressure  
Sea Level Pressure 30.00 in    
Wind  
Wind Speed 8 mph (NNW)    
Max Wind Speed 16 mph    
Max Gust Speed 22 mph    
Visibility 7 miles    
Events Snow    
T = Trace of Precipitation, MM = Missing Value Source: NWS Daily Summary

Daily Weather History Graph

Daily Weather History Graph

Search for Another Location

Airport:

Trip Planner

Search our weather history database for the weather conditions in past years. The results will help you decide how hot, cold, wet, or windy it might be!

Date:

Astronomy

Feb. 15, 2013 Rise Set
Actual Time 7:40 AM EST 6:03 PM EST
Civil Twilight 7:09 AM EST 6:34 PM EST
Nautical Twilight 6:34 AM EST 7:09 PM EST
Astronomical Twilight 5:59 AM EST 7:44 PM EST
Moon 9:53 AM EST (2/15) No Moon Set
Length of Visible Light 11h 24m
Length of Day
10h 22m
Waxing Crescent, 30% of the Moon is Illuminated
Feb 15
Waxing Crescent
Feb 17
First Quarter
Feb 25
Full
Mar 4
Last Quarter
Mar 11
New

Hourly Weather History & Observations

Time (EST) Temp. Windchill Dew Point Humidity Pressure Visibility Wind Dir Wind Speed Gust Speed Precip Events Conditions
12:55 AM 21.0 °F 8.6 °F 12.9 °F 71% 29.81 in 10.0 mi North 12.7 mph - 0.00 in   Overcast
1:55 AM 19.0 °F 6.8 °F 10.9 °F 71% 29.82 in 10.0 mi NNW 11.5 mph - N/A   Overcast
2:29 AM 18.0 °F 5.4 °F 9.0 °F 68% 29.81 in 10.0 mi North 11.5 mph 18.4 mph N/A   Overcast
2:55 AM 18.0 °F 7.7 °F 9.0 °F 68% 29.85 in 10.0 mi NNW 8.1 mph - N/A   Overcast
3:18 AM 18.0 °F 7.7 °F 10.0 °F 71% 29.83 in 10.0 mi NNW 8.1 mph - N/A   Overcast
3:55 AM 17.1 °F 5.8 °F 8.1 °F 68% 29.87 in 10.0 mi NW 9.2 mph - N/A   Overcast
4:35 AM 15.1 °F 3.3 °F 6.1 °F 68% 29.87 in 10.0 mi NNW 9.2 mph - N/A   Overcast
4:55 AM 14.0 °F 1.2 °F 5.0 °F 67% 29.91 in 10.0 mi NW 10.4 mph - N/A   Overcast
5:55 AM 12.9 °F 0.7 °F 5.0 °F 71% 29.93 in 10.0 mi NW 9.2 mph - N/A   Clear
6:55 AM 12.0 °F 1.5 °F 3.9 °F 70% 29.96 in 10.0 mi NNW 6.9 mph - N/A   Partly Cloudy
7:55 AM 10.9 °F -1.8 °F 1.9 °F 67% 29.99 in 10.0 mi North 9.2 mph - N/A   Clear
8:14 AM 10.9 °F 1.4 °F 3.0 °F 70% 29.96 in 10.0 mi North 5.8 mph - N/A   Mostly Cloudy
8:55 AM 12.0 °F 1.5 °F 3.0 °F 67% 30.01 in 8.0 mi NNW 6.9 mph - 0.00 in   Overcast
9:37 AM 12.9 °F 1.6 °F 3.0 °F 65% 29.98 in 10.0 mi North 8.1 mph - N/A   Scattered Clouds
9:55 AM 12.9 °F 0.7 °F 3.0 °F 65% 30.01 in 10.0 mi North 9.2 mph - N/A   Clear
10:55 AM 15.1 °F 2.5 °F 1.9 °F 56% 30.03 in 10.0 mi NNW 10.4 mph - N/A   Clear
11:55 AM 15.1 °F 3.3 °F 1.9 °F 56% 30.04 in 10.0 mi NW 9.2 mph - N/A   Clear
12:55 PM 16.0 °F 2.9 °F 3.0 °F 57% 30.04 in 10.0 mi NNW 11.5 mph - N/A   Clear
1:55 PM 17.1 °F 3.0 °F 5.0 °F 59% 30.04 in 10.0 mi NW 13.8 mph - N/A   Partly Cloudy
2:55 PM 16.0 °F 1.1 °F 5.0 °F 62% 30.04 in 10.0 mi NW 15.0 mph 20.7 mph N/A   Overcast
3:55 PM 16.0 °F 4.4 °F 6.1 °F 65% 30.05 in 10.0 mi NW 9.2 mph - N/A   Overcast
4:55 PM 15.1 °F 4.2 °F 6.1 °F 68% 30.06 in 10.0 mi WNW 8.1 mph - N/A   Overcast
5:55 PM 15.1 °F 9.4 °F 7.0 °F 70% 30.09 in 7.0 mi WNW 3.5 mph - 0.00 in Snow Light Snow
6:28 PM 14.0 °F - 8.1 °F 77% 30.04 in 6.0 mi Calm Calm - 0.00 in Snow Light Snow
6:55 PM 14.0 °F 8.2 °F 8.1 °F 77% 30.09 in 6.0 mi West 3.5 mph - 0.00 in Snow Light Snow
7:55 PM 15.1 °F 9.4 °F 9.0 °F 77% 30.09 in 6.0 mi NW 3.5 mph - 0.00 in Snow Light Snow
8:02 PM 15.1 °F - 9.0 °F 77% 30.05 in 1.8 mi Calm Calm - 0.00 in Snow Light Snow
8:33 PM 14.0 °F 8.2 °F 10.0 °F 84% 30.06 in 1.0 mi WSW 3.5 mph - 0.00 in Snow Light Snow
8:47 PM 15.1 °F 9.4 °F 10.0 °F 80% 30.06 in 0.8 mi West 3.5 mph - 0.01 in Snow Light Snow
8:55 PM 15.1 °F - 10.0 °F 80% 30.10 in 1.0 mi Calm Calm - 0.02 in Snow Light Snow
9:35 PM 14.0 °F 6.5 °F 9.0 °F 80% 30.06 in 0.8 mi North 4.6 mph - 0.02 in Snow Light Snow
9:50 PM 12.2 °F 4.3 °F 8.6 °F 85% 30.06 in 1.0 mi NNE 4.6 mph - 0.03 in Snow Light Snow
9:55 PM 12.9 °F 2.6 °F 8.1 °F 81% 30.10 in 1.5 mi NNE 6.9 mph - 0.03 in Snow Light Snow
10:06 PM 12.9 °F 5.2 °F 7.0 °F 77% 30.06 in 2.0 mi NE 4.6 mph - 0.00 in Snow Light Snow
10:16 PM 12.9 °F - 8.1 °F 81% 30.05 in 3.0 mi Calm Calm - 0.00 in Snow Light Snow
10:55 PM 12.0 °F - 6.1 °F 77% 30.09 in 7.0 mi Calm Calm - 0.00 in   Overcast
11:08 PM 10.9 °F - 6.1 °F 81% 30.05 in 10.0 mi Calm Calm - N/A   Overcast
11:55 PM 9.0 °F 0.6 °F 3.9 °F 80% 30.09 in 8.0 mi ENE 4.6 mph - N/A   Overcast